Theta_e
342 343 344 343 345 347 345 346 347 347 347 343 342 357 355 354 356 358 357 355 352 347 339 328 326 326 325 325 325 324 325 325 326 324 323 322 322 321 319 317 316 316 316
346 347 347 347 349 350 350 348 349 353 350 346 340 346 356 355 356 357 357 356 354 348 341 332 327 325 325 326 321 322 323 325 324 324 322 321 321 319 318 316 315 315 316
348 349 350 352 353 353 354 354 353 354 354 349 348 351 354 355 356 356 357 357 355 351 344 333 328 326 325 321 321 323 325 324 324 323 320 319 319 319 316 315 315 315 315
354 354 355 355 356 357 356 357 356 356 356 354 350 350 351 356 356 355 356 357 356 352 342 331 328 327 324 319 322 322 322 322 322 320 320 319 319 318 316 314 315 314 316
345 346 349 354 356 357 360 360 360 359 357 356 356 354 350 349 350 354 354 356 356 354 338 330 329 324 317 320 322 322 322 321 321 319 318 319 320 318 316 314 314 315 315
351 349 348 354 356 356 356 356 358 359 359 358 357 356 355 352 350 349 354 354 354 352 341 332 326 318 318 322 320 319 319 320 318 318 318 320 320 318 315 315 314 313 314
351 352 353 355 353 354 360 359 359 359 359 359 358 357 357 357 355 353 353 356 354 350 343 333 322 317 319 319 319 318 317 317 318 317 317 317 319 318 316 315 313 314 314
346 348 350 352 352 340 353 360 360 360 360 360 359 359 359 359 358 357 354 354 354 349 343 335 326 318 319 319 320 318 317 317 317 317 317 317 318 318 316 314 313 313 314
341 344 347 349 351 350 339 343 354 357 356 351 355 359 359 359 358 357 356 353 351 345 339 331 324 319 320 320 320 319 317 316 317 317 317 318 317 315 315 314 313 314 315
339 343 346 347 349 351 352 346 344 348 348 344 343 350 358 359 358 358 356 353 349 338 334 330 322 320 321 322 321 321 318 316 317 317 316 316 315 314 314 313 313 313 313
339 343 344 346 351 353 353 342 344 342 341 342 345 342 355 358 357 358 356 353 352 341 335 328 323 319 321 323 323 322 320 317 316 316 316 316 316 316 314 314 314 313 313
338 341 341 344 347 351 354 356 346 342 349 350 346 342 354 356 357 357 351 354 353 349 342 335 331 320 321 323 323 322 322 318 316 316 316 316 316 316 316 315 314 313 314
336 337 340 344 346 348 351 355 354 353 352 353 353 353 356 355 357 357 357 353 353 350 349 344 336 321 321 323 323 323 323 320 317 317 316 315 315 315 315 315 314 313 313
334 335 337 341 344 345 346 350 350 347 347 351 350 349 352 353 353 355 351 345 345 347 348 342 333 322 321 323 323 322 322 323 321 317 315 314 314 314 314 314 313 312 312
331 333 335 338 340 343 342 341 337 338 339 340 341 340 345 346 348 349 348 346 346 345 343 335 327 320 320 321 323 323 323 322 322 319 316 315 314 314 313 313 313 313 313
326 330 331 334 337 339 340 338 336 333 335 338 339 339 337 339 341 346 347 346 347 345 337 331 325 321 320 320 322 323 324 323 322 320 317 315 314 314 314 314 314 314 313
323 326 327 332 333 334 337 338 334 331 334 333 335 334 336 338 338 338 340 344 343 339 338 334 329 323 321 320 322 323 325 324 323 322 319 316 315 314 313 313 313 314 314
321 322 325 327 329 330 333 337 338 334 333 331 330 330 332 337 339 340 336 337 333 332 333 332 329 326 323 320 320 321 323 323 323 323 320 317 316 315 314 314 313 314 313
318 320 322 324 325 326 328 332 335 334 330 328 330 331 332 333 333 334 335 336 334 330 331 330 329 326 323 321 321 320 320 318 318 320 322 319 317 316 315 314 314 313 313
316 317 318 321 321 324 325 325 328 328 325 324 325 328 331 331 330 330 330 330 330 329 329 328 327 327 325 324 321 319 318 317 315 317 319 319 320 318 316 316 314 314 313
313 314 315 317 318 318 319 320 321 322 321 321 320 322 328 329 328 327 328 328 328 329 329 328 327 327 326 324 322 320 319 316 317 316 317 321 321 319 319 317 316 315 314
311 310 312 313 313 313 314 314 316 317 317 317 317 320 323 324 323 322 323 325 327 327 328 328 328 328 328 326 324 321 321 319 317 315 318 321 322 321 319 318 317 316 316
310 309 308 309 310 310 310 310 310 311 311 312 312 314 316 315 314 316 317 317 321 323 325 326 328 329 329 328 325 323 321 320 319 317 321 321 321 322 321 320 319 318 317
307 307 306 306 306 307 307 306 306 306 306 306 307 308 308 308 309 310 310 312 315 317 318 321 323 327 329 329 329 328 325 322 322 322 324 326 323 322 320 320 320 319 319
306 304 304 304 305 304 304 304 304 304 304 304 304 303 304 304 305 306 306 307 309 311 313 316 318 321 325 326 328 328 329 328 324 321 325 326 322 322 322 321 321 320 320
306 304 304 303 303 303 303 302 302 302 302 302 302 302 302 302 302 303 304 305 306 308 309 311 314 316 319 323 324 326 326 327 326 323 321 324 326 323 322 322 321 321 321
Wind_Speed
27 28 28 28 27 25 25 26 24 21 19 17 16 15 15 15 15 14 12 10 7 7 6 4 4 4 6 6 8 8 5 1 3 3 5 10 4 3 6 8 10 10 10
29 27 27 26 26 25 27 27 26 24 21 19 19 19 18 17 16 15 14 12 9 8 7 5 2 4 6 8 10 10 6 0 2 6 7 4 4 4 5 8 10 11 11
30 28 27 27 27 27 26 27 27 26 23 20 18 18 20 20 18 16 15 14 10 9 9 5 2 3 6 8 8 9 8 7 3 7 5 6 3 3 8 7 10 12 11
19 22 24 26 28 27 26 25 26 26 26 23 23 21 20 21 20 17 16 16 13 11 9 4 1 2 3 4 5 7 6 8 6 8 8 6 4 2 6 5 9 15 15
4 7 8 10 13 17 23 24 24 25 25 26 24 26 26 23 23 21 17 16 15 13 9 5 4 2 1 3 5 5 3 6 5 6 5 4 4 2 3 3 8 15 12
5 6 5 9 13 16 19 22 20 23 24 24 25 24 26 23 23 21 19 18 16 16 12 8 7 6 5 5 6 6 4 3 5 5 5 3 3 2 5 5 8 7 6
4 4 5 8 10 11 11 18 22 22 22 24 25 24 26 24 21 22 19 20 16 17 15 12 11 10 9 8 9 10 9 7 5 5 9 4 3 3 2 4 9 7 5
7 8 7 9 11 11 10 13 15 17 21 23 25 25 24 24 22 19 19 18 19 19 18 16 14 15 12 11 12 12 13 11 10 9 9 5 6 5 3 8 10 7 8
8 10 13 11 13 14 12 7 7 3 4 19 30 27 20 19 15 13 17 19 20 22 20 18 17 18 16 13 12 12 12 12 10 9 7 8 8 9 9 11 9 7 7
14 13 13 11 14 16 14 15 19 14 11 30 45 44 21 18 15 14 15 19 21 24 22 20 20 19 18 15 12 11 12 11 11 13 12 11 10 11 8 6 7 10 4
19 18 16 15 18 16 9 9 6 6 7 25 43 49 29 16 15 15 13 14 23 27 27 27 25 22 21 17 12 10 9 13 12 11 10 8 7 7 8 6 3 4 7
20 20 19 18 16 16 5 15 9 12 9 10 41 65 32 14 12 13 16 19 22 26 28 29 26 27 25 19 15 11 10 10 12 10 9 8 6 7 8 6 4 3 3
21 20 20 19 17 15 13 2 7 9 6 9 9 8 10 9 9 12 16 24 19 23 23 24 24 28 26 22 18 15 12 11 10 10 8 7 6 6 8 9 7 6 8
21 20 20 18 17 13 10 6 4 1 3 5 11 18 10 3 4 8 20 27 21 18 15 19 23 27 30 26 23 19 16 14 10 9 10 10 10 9 9 10 11 9 9
21 19 19 17 15 9 8 7 7 7 6 9 5 1 3 6 6 8 13 22 21 20 19 22 23 28 32 30 26 23 22 19 15 11 12 12 11 11 10 10 10 8 5
18 19 18 16 15 10 4 3 4 8 10 8 3 2 4 5 4 6 7 10 17 20 23 24 25 27 26 26 25 23 26 24 20 16 14 13 12 11 11 10 8 7 9
16 16 19 15 14 13 8 4 4 3 7 7 7 6 3 5 5 6 8 10 13 20 23 27 27 27 25 26 26 26 28 27 24 20 17 16 13 11 12 9 8 9 9
16 15 15 14 13 14 10 4 6 7 3 1 7 9 12 9 2 5 10 13 18 21 15 21 23 27 28 27 28 30 28 25 26 23 21 19 16 13 11 10 10 11 9
14 15 15 14 13 12 10 4 6 10 6 2 3 5 8 12 13 11 8 8 14 17 12 13 15 19 22 27 31 32 29 27 27 24 24 21 20 17 13 10 11 12 12
15 14 13 12 13 12 10 6 1 5 5 5 5 4 7 8 13 14 13 10 8 5 6 6 8 12 19 26 27 29 28 26 28 26 25 24 25 20 16 14 14 13 13
15 15 13 11 11 10 9 7 4 2 4 5 5 4 7 8 10 10 11 10 8 7 5 2 4 9 12 18 24 28 28 25 27 24 22 24 27 25 21 17 15 14 13
16 14 12 10 10 9 7 6 3 2 4 3 4 4 4 5 6 6 6 5 3 2 2 4 6 6 9 15 20 25 26 27 28 27 26 24 24 27 23 18 17 15 15
15 13 10 9 8 7 5 4 3 3 4 4 5 6 6 7 7 7 6 5 3 2 2 3 5 7 9 10 12 16 24 27 30 29 25 24 26 24 26 24 20 18 18
15 13 10 9 8 6 4 4 5 7 7 8 8 9 9 9 10 10 8 7 7 6 4 3 3 5 7 9 11 14 19 23 28 29 24 23 22 24 22 21 23 25 22
14 11 10 10 8 6 4 5 6 8 9 11 11 11 11 12 13 13 11 10 10 8 7 5 3 1 3 5 8 12 16 23 30 33 30 16 17 22 25 24 22 24 22
15 13 13 11 9 7 4 6 9 11 12 14 15 15 16 17 18 17 17 16 15 15 13 12 9 5 2 3 6 7 9 14 23 30 35 33 17 19 24 25 24 23 24
Wind_Direction
224 232 235 239 243 249 253 254 255 257 258 263 255 247 243 240 235 236 237 246 259 277 296 319 347 350 340 350 346 338 325 337 123 108 111 125 103 57 40 14 7 7 356
231 230 236 242 245 247 252 254 257 264 262 257 251 250 245 240 235 236 235 238 247 267 278 297 352 355 338 346 349 347 336 12 146 129 134 109 118 60 31 25 17 6 4
234 234 239 244 242 245 248 255 258 257 259 257 246 243 243 241 241 241 240 236 241 262 266 274 317 347 337 349 19 33 62 85 126 135 119 117 108 67 45 36 16 23 18
242 242 246 249 253 254 254 253 255 255 254 252 251 249 247 248 249 247 241 235 235 245 249 245 241 303 330 4 58 73 81 97 109 109 111 122 126 73 74 30 25 26 23
283 266 260 265 259 258 257 254 253 252 254 256 255 258 255 253 253 249 241 235 231 234 227 210 202 204 68 60 86 86 75 104 118 123 117 117 110 106 63 46 356 348 354
324 310 290 286 293 286 268 259 254 252 248 250 251 255 259 254 257 253 242 232 231 215 212 197 178 159 128 106 90 80 70 108 144 130 115 106 103 105 115 41 13 12 345
358 331 323 300 311 324 304 272 257 251 252 250 250 249 254 254 256 247 240 235 227 206 207 190 172 160 152 135 112 92 79 87 114 123 132 122 111 116 118 59 82 63 31
335 331 334 337 318 307 304 274 270 273 269 265 262 259 257 261 261 246 232 228 220 204 200 196 187 169 166 151 127 104 87 92 97 105 122 124 101 93 85 117 110 85 55
2 339 331 335 310 293 289 307 269 228 340 350 309 270 263 270 256 250 225 217 206 200 191 196 191 178 171 168 142 122 102 98 99 109 108 107 94 88 104 120 104 81 36
346 337 340 337 321 298 296 310 247 253 279 319 310 307 272 271 262 241 224 207 199 194 187 193 199 187 178 175 163 139 118 116 122 122 111 105 104 98 104 111 93 94 41
348 345 350 353 350 330 300 294 180 228 250 286 289 280 290 270 250 233 223 208 205 197 189 192 197 195 185 180 180 151 127 130 133 131 128 119 113 106 105 122 109 133 34
346 343 349 358 360 353 332 233 235 226 186 236 240 254 258 264 241 228 208 229 203 200 199 202 199 197 188 186 182 171 153 145 140 136 134 129 121 115 130 129 112 157 27
345 341 347 355 3 3 14 191 225 234 206 240 211 337 355 324 241 205 206 213 214 207 206 208 201 196 192 189 191 185 182 171 157 145 145 138 139 129 125 131 130 118 114
341 341 347 356 5 4 15 25 291 52 38 8 11 334 341 265 211 199 199 209 210 211 207 204 202 195 195 194 193 197 202 198 184 159 148 147 142 140 140 133 131 134 120
341 340 346 352 4 4 355 16 43 44 35 65 64 298 218 224 195 200 204 204 205 204 194 191 188 192 194 196 201 205 207 204 198 184 165 160 158 158 159 154 146 141 126
334 334 341 343 340 355 315 17 49 71 71 88 112 236 249 235 210 206 209 207 215 209 195 188 187 190 188 189 190 197 206 210 204 197 182 174 171 165 168 168 165 153 142
334 329 330 335 334 327 339 242 203 107 88 61 46 32 339 278 237 221 205 190 205 209 201 199 197 194 188 186 187 197 199 202 204 205 196 187 179 176 170 169 162 158 155
333 331 333 333 332 324 315 322 207 197 165 53 42 42 40 31 4 197 176 173 179 193 207 206 201 199 193 186 189 196 200 201 206 207 208 199 187 186 179 180 176 167 172
340 332 332 329 328 327 327 322 156 154 150 90 41 49 48 59 68 86 125 164 182 198 216 221 222 213 202 200 197 203 199 206 209 206 213 207 200 194 192 189 189 182 176
345 339 331 326 329 334 336 341 95 138 146 137 115 115 113 107 90 92 97 111 129 167 203 214 222 219 214 208 207 203 202 208 209 209 215 216 210 201 198 194 193 193 195
346 337 336 332 331 329 332 343 358 65 98 89 81 79 154 124 107 100 100 102 111 120 123 163 212 215 214 213 211 208 202 203 208 201 223 219 213 209 206 203 197 196 194
346 338 335 336 336 337 331 332 342 66 83 75 60 75 123 116 99 81 75 76 73 94 140 191 200 223 218 217 214 210 204 205 206 198 215 219 218 219 216 205 203 200 199
349 343 338 342 338 335 342 356 41 62 75 76 72 75 79 75 77 78 68 65 78 112 174 183 189 187 203 214 217 213 205 210 204 199 213 218 219 219 218 215 210 204 205
352 348 344 353 2 359 10 26 54 77 86 86 86 85 84 83 80 75 69 66 74 73 86 118 168 184 186 195 206 214 215 216 203 195 203 219 224 222 215 212 211 217 215
4 358 7 10 5 5 15 68 86 84 87 90 87 85 84 84 80 77 73 67 67 63 58 56 58 93 182 203 208 215 216 214 210 208 203 217 227 228 225 221 214 213 214
20 21 27 20 25 23 32 82 93 94 91 92 90 87 85 81 77 73 69 64 59 55 47 40 34 19 344 246 241 236 235 231 219 212 213 211 221 233 232 222 216 211 217